Location: Birkenwerder
(52.6919°N, 13.2774°E)
Time: 22:39:06
(UTC+00:00)

IRAS Rocket - Pass Details

Date: 07 June 2020
Orbit: 847 x 878 km, 100.0° (Epoch: 04 July)

Event Time Altitude Azimuth Distance (km) Brightness Sun altitude
Exits shadow 00:18:05 16° 176° (S) 2,122 5.7 -12.9°
Maximum altitude 00:22:36 64° 255° (WSW) 947 4.3 -12.7°
Drops below altitude 10° 00:28:06 10° 337° (NNW) 2,497 7.4 -12.4°
Sets 00:30:30 0° 341° (NNW) 3,433 8.2 -12.3°
